TimeCST,TemperatureF,Dew PointF,Humidity,Sea Level PressureIn,VisibilityMPH,Wind Direction,Wind SpeedMPH,Gust SpeedMPH,PrecipitationIn,Events,Conditions,WindDirDegrees,DateUTC
12:15 AM,33.8,30.2,87,29.95,10.0,Calm,Calm,-,N/A,,Clear,0,2013-02-24 06:15:00
12:35 AM,33.8,30.2,87,29.95,10.0,Calm,Calm,-,N/A,,Clear,0,2013-02-24 06:35:00
12:55 AM,32.0,30.2,93,29.95,10.0,Calm,Calm,-,N/A,,Clear,0,2013-02-24 06:55:00
1:15 AM,32.0,30.2,93,29.96,10.0,Calm,Calm,-,N/A,,Clear,0,2013-02-24 07:15:00
1:35 AM,32.0,28.4,87,29.96,10.0,Calm,Calm,-,N/A,,Clear,0,2013-02-24 07:35:00
1:55 AM,33.8,30.2,87,29.96,10.0,East,5.8,-,N/A,,Clear,80,2013-02-24 07:55:00
2:15 AM,35.6,28.4,75,29.95,10.0,East,3.5,-,N/A,,Clear,80,2013-02-24 08:15:00
2:35 AM,33.8,28.4,81,29.94,10.0,East,5.8,-,N/A,,Clear,90,2013-02-24 08:35:00
2:55 AM,35.6,30.2,81,29.92,10.0,East,5.8,-,N/A,,Clear,80,2013-02-24 08:55:00
3:15 AM,35.6,30.2,81,29.92,10.0,East,5.8,-,N/A,,Clear,80,2013-02-24 09:15:00
3:35 AM,37.4,30.2,75,29.91,10.0,East,6.9,-,N/A,,Clear,90,2013-02-24 09:35:00
3:55 AM,37.4,30.2,75,29.91,10.0,East,6.9,-,N/A,,Clear,90,2013-02-24 09:55:00
4:15 AM,37.4,30.2,75,29.91,10.0,ESE,4.6,-,N/A,,Clear,120,2013-02-24 10:15:00
4:35 AM,33.8,30.2,87,29.91,10.0,SE,4.6,-,N/A,,Clear,130,2013-02-24 10:35:00
4:55 AM,35.6,32.0,87,29.91,10.0,Calm,Calm,-,N/A,,Clear,0,2013-02-24 10:55:00
5:15 AM,35.6,30.2,81,29.92,10.0,ESE,4.6,-,N/A,,Clear,120,2013-02-24 11:15:00
5:35 AM,37.4,32.0,81,29.91,10.0,ESE,6.9,-,N/A,,Clear,120,2013-02-24 11:35:00
5:55 AM,37.4,32.0,81,29.92,10.0,ESE,4.6,-,N/A,,Clear,120,2013-02-24 11:55:00
6:15 AM,37.4,32.0,81,29.92,10.0,ESE,5.8,-,N/A,,Clear,120,2013-02-24 12:15:00
6:35 AM,37.4,32.0,81,29.92,10.0,SE,4.6,-,N/A,,Clear,130,2013-02-24 12:35:00
7:15 AM,35.6,32.0,87,29.94,10.0,Calm,Calm,-,N/A,,Clear,0,2013-02-24 13:15:00
7:35 AM,37.4,33.8,87,29.94,10.0,ESE,4.6,-,N/A,,Clear,110,2013-02-24 13:35:00
7:55 AM,41.0,33.8,76,29.94,10.0,ESE,4.6,-,N/A,,Clear,120,2013-02-24 13:55:00
8:15 AM,42.8,35.6,76,29.95,10.0,SE,9.2,-,N/A,,Clear,130,2013-02-24 14:15:00
8:35 AM,46.4,37.4,71,29.95,10.0,SE,11.5,-,N/A,,Clear,130,2013-02-24 14:35:00
8:55 AM,48.2,37.4,66,29.96,10.0,SE,10.4,-,N/A,,Clear,140,2013-02-24 14:55:00
9:15 AM,50.0,37.4,62,29.95,10.0,SE,12.7,18.4,N/A,,Clear,130,2013-02-24 15:15:00
9:35 AM,51.8,37.4,58,29.95,10.0,SE,17.3,-,N/A,,Clear,130,2013-02-24 15:35:00
9:55 AM,53.6,37.4,54,29.95,10.0,SE,12.7,-,N/A,,Clear,140,2013-02-24 15:55:00
10:15 AM,55.4,37.4,51,29.94,10.0,SE,12.7,-,N/A,,Clear,130,2013-02-24 16:15:00
10:35 AM,57.2,37.4,48,29.94,10.0,SE,11.5,-,N/A,,Clear,130,2013-02-24 16:35:00
10:55 AM,59.0,37.4,45,29.94,10.0,SE,11.5,-,N/A,,Clear,130,2013-02-24 16:55:00
11:15 AM,60.8,37.4,42,29.93,10.0,SE,11.5,-,N/A,,Clear,140,2013-02-24 17:15:00
11:35 AM,60.8,39.2,45,29.93,10.0,SSE,12.7,20.7,N/A,,Clear,150,2013-02-24 17:35:00
11:55 AM,60.8,39.2,45,29.92,10.0,SSE,11.5,16.1,N/A,,Clear,150,2013-02-24 17:55:00
12:15 PM,62.6,39.2,42,29.90,10.0,SSE,10.4,-,N/A,,Clear,150,2013-02-24 18:15:00
12:35 PM,62.6,37.4,39,29.88,10.0,East,9.2,17.3,N/A,,Clear,100,2013-02-24 18:35:00
12:55 PM,64.4,37.4,37,29.87,10.0,ESE,8.1,17.3,N/A,,Clear,120,2013-02-24 18:55:00
1:15 PM,64.4,37.4,37,29.85,10.0,SE,10.4,16.1,N/A,,Clear,130,2013-02-24 19:15:00
1:35 PM,64.4,37.4,37,29.83,10.0,SE,11.5,17.3,N/A,,Clear,130,2013-02-24 19:35:00
1:55 PM,64.4,37.4,37,29.82,10.0,East,12.7,18.4,N/A,,Clear,100,2013-02-24 19:55:00
2:15 PM,66.2,37.4,35,29.81,10.0,East,11.5,17.3,N/A,,Clear,90,2013-02-24 20:15:00
2:35 PM,66.2,35.6,32,29.80,10.0,ESE,13.8,19.6,N/A,,Clear,110,2013-02-24 20:35:00
2:55 PM,68.0,35.6,30,29.78,10.0,East,11.5,21.9,N/A,,Clear,100,2013-02-24 20:55:00
3:15 PM,68.0,35.6,30,29.77,10.0,ESE,13.8,20.7,N/A,,Clear,110,2013-02-24 21:15:00
3:35 PM,68.0,33.8,28,29.77,10.0,ESE,11.5,20.7,N/A,,Clear,120,2013-02-24 21:35:00
3:55 PM,68.0,33.8,28,29.76,10.0,East,12.7,19.6,N/A,,Clear,100,2013-02-24 21:55:00
4:15 PM,68.0,33.8,28,29.75,10.0,ESE,9.2,-,N/A,,Clear,120,2013-02-24 22:15:00
4:35 PM,68.0,33.8,28,29.74,10.0,East,10.4,-,N/A,,Clear,100,2013-02-24 22:35:00
4:55 PM,68.0,33.8,28,29.74,10.0,ESE,10.4,19.6,N/A,,Clear,110,2013-02-24 22:55:00
5:15 PM,66.2,32.0,28,29.73,10.0,ESE,11.5,17.3,N/A,,Clear,110,2013-02-24 23:15:00
5:35 PM,64.4,32.0,30,29.73,10.0,ESE,9.2,-,N/A,,Clear,110,2013-02-24 23:35:00
5:55 PM,64.4,32.0,30,29.74,10.0,ESE,8.1,-,N/A,,Clear,120,2013-02-24 23:55:00
6:15 PM,62.6,32.0,32,29.74,10.0,ESE,8.1,16.1,N/A,,Clear,110,2013-02-25 00:15:00
6:35 PM,60.8,32.0,34,29.75,10.0,East,4.6,-,N/A,,Clear,100,2013-02-25 00:35:00
6:55 PM,59.0,32.0,36,29.75,10.0,East,4.6,-,N/A,,Clear,100,2013-02-25 00:55:00
7:15 PM,59.0,32.0,36,29.75,10.0,ESE,6.9,-,N/A,,Clear,110,2013-02-25 01:15:00
7:35 PM,59.0,33.8,39,29.74,10.0,ESE,6.9,-,N/A,,Clear,110,2013-02-25 01:35:00
7:55 PM,59.0,33.8,39,29.73,10.0,ESE,8.1,-,N/A,,Clear,110,2013-02-25 01:55:00
8:15 PM,57.2,33.8,41,29.73,10.0,ESE,8.1,-,N/A,,Clear,110,2013-02-25 02:15:00
8:35 PM,55.4,33.8,44,29.73,10.0,East,6.9,-,N/A,,Clear,100,2013-02-25 02:35:00
8:55 PM,55.4,33.8,44,29.73,10.0,East,5.8,-,N/A,,Clear,90,2013-02-25 02:55:00
9:15 PM,55.4,33.8,44,29.74,10.0,East,3.5,-,N/A,,Mostly Cloudy,90,2013-02-25 03:15:00
9:35 PM,55.4,35.6,47,29.74,10.0,East,5.8,-,N/A,,Overcast,90,2013-02-25 03:35:00
9:55 PM,55.4,35.6,47,29.74,10.0,East,4.6,-,N/A,,Overcast,90,2013-02-25 03:55:00
10:15 PM,55.4,35.6,47,29.74,10.0,East,6.9,-,N/A,,Overcast,100,2013-02-25 04:15:00
10:35 PM,55.4,35.6,47,29.73,10.0,East,8.1,-,N/A,,Overcast,100,2013-02-25 04:35:00
10:55 PM,55.4,35.6,47,29.72,10.0,ESE,8.1,-,N/A,,Overcast,110,2013-02-25 04:55:00
11:15 PM,55.4,35.6,47,29.71,10.0,ESE,9.2,-,N/A,,Overcast,110,2013-02-25 05:15:00
11:35 PM,55.4,35.6,47,29.69,10.0,ESE,9.2,-,N/A,,Mostly Cloudy,110,2013-02-25 05:35:00
11:55 PM,53.6,35.6,51,29.68,10.0,East,9.2,-,N/A,,Scattered Clouds,100,2013-02-25 05:55:00